This is the latest recevied weather packets stored in our database for station/object AI5KP-13. If no packets are shown the sender has not sent any weather packets the latest 10 day(s).
| Time | Temp. | Humidity | Pressure | Rain* | Wind** | Luminosity | Snow |
|---|---|---|---|---|---|---|---|
| 1777857044 | 22.78° C | 49% | 1012.2 hPa | 0 mm | - | 1 W/m² | - |
| 1777856739 | 22.78° C | 49% | 1012.2 hPa | 0 mm | - | 3 W/m² | - |
| 1777856436 | 22.78° C | 48% | 1012.1 hPa | 0 mm | - | 5 W/m² | - |
| 1777856133 | 22.78° C | 48% | 1012.1 hPa | 0 mm | - | 8 W/m² | - |
| 1777855830 | 23.33° C | 49% | 1012.1 hPa | 0 mm | - | 10 W/m² | - |
| 1777855528 | 23.33° C | 47% | 1012.2 hPa | 0 mm | - | 12 W/m² | - |
| 1777855225 | 23.33° C | 47% | 1012.2 hPa | 0 mm | - | 16 W/m² | - |
| 1777854921 | 23.89° C | 49% | 1012.3 hPa | 0 mm | - | 19 W/m² | - |
| 1777854618 | 23.89° C | 47% | 1012 hPa | 0 mm | - | 24 W/m² | - |
| 1777854315 | 23.89° C | 46% | 1012.1 hPa | 0 mm | - | 28 W/m² | - |
| 1777854012 | 24.44° C | 46% | 1012.3 hPa | 0 mm | - | 25 W/m² | - |
| 1777853710 | 24.44° C | 44% | 1012.2 hPa | 0 mm | - | 38 W/m² | - |
| 1777853406 | 24.44° C | 44% | 1012.4 hPa | 0 mm | - | 46 W/m² | - |
| 1777853103 | 25° C | 42% | 1012.2 hPa | 0 mm | - | 53 W/m² | - |
| 1777852800 | 25° C | 40% | 1012.7 hPa | 0 mm | - | 61 W/m² | - |
| 1777852498 | 25° C | 40% | 1012.6 hPa | 0 mm | - | 69 W/m² | - |
| 1777852195 | 25° C | 39% | 1012.8 hPa | 0 mm | - | 77 W/m² | - |
| 1777851892 | 25° C | 40% | 1012.4 hPa | 0 mm | - | 86 W/m² | - |
| 1777851590 | 25.56° C | 40% | 1012.4 hPa | 0 mm | - | 97 W/m² | - |
| 1777851287 | 25.56° C | 39% | 1012.4 hPa | 0 mm | - | 108 W/m² | - |
| 1777850983 | 25.56° C | 35% | 1012.7 hPa | 0 mm | - | 120 W/m² | - |
| 1777850680 | 25.56° C | 37% | 1012.4 hPa | 0 mm | - | 133 W/m² | - |
| 1777850378 | 25.56° C | 37% | 1012.6 hPa | 0 mm | - | 147 W/m² | - |
| 1777850075 | 25.56° C | 35% | 1012.7 hPa | 0 mm | - | 154 W/m² | - |
| 1777849772 | 25.56° C | 33% | 1012.6 hPa | 0 mm | - | 175 W/m² | - |
* Rain latest hour (hover to see other rain measurements)
** Current wind speed in m/s (hover to see current wind gust speed)